カタログに戻る

STARLINK-3153

運用中通信VLEO
NORAD 49431·PAYLOAD·🇺🇸 United States

打ち上げ Nov 13, 2021 から Cape Canaveral Space Force Station

Loading…

次のパス (今後24時間)

TLE

最新Source: CelesTrak SupGP

元期: Sep 14, 2026, 21:34 UTC

1 49431C 21104Z   26257.89909722  .00016443  00000+0  48593-3 0  2573
2 49431  53.1583  87.5628 0001336  80.7372 203.9278 15.34374139    16

AllMySatでSTARLINK-3153をリアルタイム追跡

Download on the App Store